Probability
90 77 71 61 81 81 87 87 77 74 74 77 77 81 74 77 68 58 26 90 94 94 90 97 100 100 100 100 100 100 100 100 100 100 100 100 100 100 100 100 100 87 61
84 71 65 42 48 61 65 65 74 65 58 48 48 52 39 19 32 42 29 48 81 87 94 94 97 100 100 100 100 100 100 100 100 100 100 97 97 100 100 100 100 94 58
71 61 52 52 55 61 52 29 29 16 13 6 6 3 3 6 6 3 0 0 19 65 97 94 97 97 100 100 100 100 100 100 100 100 100 100 84 84 97 97 97 61 10
81 68 55 45 52 48 26 6 6 3 0 0 0 0 0 0 0 0 0 0 0 3 58 87 94 97 97 100 100 100 100 100 100 100 100 100 94 74 61 77 77 35 0
84 71 42 26 13 10 3 0 0 0 0 0 0 0 0 0 0 0 0 3 3 3 3 23 77 87 90 94 100 100 100 100 100 100 100 100 100 90 52 39 42 19 0
61 32 10 6 6 3 0 0 0 0 0 0 0 0 0 0 0 0 0 0 0 3 6 10 10 55 90 94 97 100 100 100 100 100 100 100 100 100 55 19 6 3 0
10 3 0 0 0 0 0 0 0 0 0 0 0 0 0 0 0 0 0 0 0 0 0 3 10 16 35 87 90 97 100 100 100 100 100 100 100 100 81 32 3 0 0
3 0 0 0 0 0 0 0 0 0 0 0 0 0 0 0 0 0 0 0 0 0 0 0 0 6 16 26 35 77 94 97 97 97 97 97 100 94 90 65 3 0 0
0 0 0 0 0 0 0 0 0 0 0 0 0 0 0 0 0 0 0 0 0 0 0 0 0 3 13 3 13 26 77 84 87 87 84 84 74 71 68 65 35 10 3
0 0 0 0 0 0 0 0 0 0 0 0 0 0 0 0 0 0 0 0 0 0 0 0 0 3 6 6 6 13 35 45 68 71 71 65 52 23 19 35 61 68 29
0 0 0 0 0 0 0 0 0 0 0 0 0 0 0 0 0 0 0 0 0 0 0 0 0 0 0 10 10 10 13 10 10 35 48 45 39 32 29 45 77 90 94
0 0 0 0 0 0 0 0 0 0 0 0 0 0 0 0 0 0 0 0 0 0 0 0 0 0 0 10 10 26 19 6 0 0 0 0 13 16 32 48 74 77 84
0 0 0 0 0 0 0 0 0 0 0 0 0 0 0 0 0 0 0 0 0 0 0 0 0 0 0 0 6 26 23 0 0 0 0 0 0 0 3 6 23 32 52
0 0 0 0 0 0 0 0 0 0 0 0 0 0 0 0 0 0 0 0 0 0 0 0 0 0 0 0 0 3 3 0 0 0 0 0 0 0 0 0 0 0 3
0 0 0 0 0 0 0 0 0 0 0 0 0 0 0 0 0 0 0 0 0 0 0 0 0 0 0 0 0 0 0 0 0 0 0 0 0 0 0 0 0 0 0
0 0 0 0 0 0 0 0 0 0 0 0 0 0 0 0 0 0 0 0 0 0 0 0 0 0 0 0 0 0 0 0 0 0 0 0 0 0 0 0 0 0 0
0 0 0 0 0 0 0 0 0 0 0 0 0 0 0 0 0 0 0 0 0 0 0 0 0 0 0 0 0 0 0 0 0 0 0 0 0 0 0 0 0 0 0
0 0 0 0 0 0 0 0 0 0 0 0 0 0 0 0 0 0 0 0 0 0 0 0 0 0 0 0 0 0 0 0 0 0 0 0 0 0 0 0 0 0 0
0 0 0 0 0 0 0 0 0 0 0 0 0 0 0 0 0 0 0 0 0 0 0 0 0 0 0 0 0 0 0 0 0 0 0 0 0 0 0 0 0 0 0
0 0 0 0 0 0 0 0 0 0 0 0 0 0 0 0 0 0 0 0 0 0 0 0 0 0 0 0 0 0 0 0 0 0 0 0 0 0 0 0 0 0 0
0 0 0 0 0 0 0 0 0 0 0 0 0 0 0 0 0 0 0 0 0 0 0 0 0 0 0 0 0 0 0 0 0 0 0 0 0 0 0 0 0 0 0
0 0 0 0 0 0 0 0 0 0 0 0 0 0 0 0 0 0 0 0 0 0 0 0 0 0 0 0 0 0 0 0 0 0 0 0 0 0 0 0 0 0 0
0 0 0 0 0 0 0 0 0 0 0 0 0 0 0 0 0 0 0 0 0 0 0 0 0 0 0 0 0 0 0 0 0 0 0 0 0 0 0 0 0 0 0
0 0 0 0 0 0 0 0 0 0 0 0 0 0 0 0 0 0 0 0 0 0 0 0 0 0 0 0 0 0 0 0 0 0 0 0 0 0 0 0 0 0 0
0 0 0 0 0 0 0 0 0 0 0 0 0 0 0 0 0 0 0 0 0 0 0 0 0 0 0 0 0 0 0 0 0 0 0 0 0 0 0 0 0 0 0
0 0 0 0 0 0 0 0 0 0 0 0 0 0 0 0 0 0 0 0 0 0 0 0 0 0 0 0 0 0 0 0 0 0 0 0 0 0 0 0 0 0 0
Height
5851 5851 5850 5849 5849 5849 5849 5849 5849 5848 5848 5847 5846 5846 5847 5847 5846 5846 5846 5846 5846 5847 5849 5851 5853 5856 5858 5861 5863 5866 5868 5870 5872 5873 5875 5877 5879 5881 5882 5884 5885 5886 5887
5846 5845 5844 5844 5843 5843 5843 5843 5843 5843 5842 5842 5841 5841 5841 5841 5841 5841 5841 5841 5841 5842 5843 5845 5846 5848 5851 5854 5857 5859 5862 5865 5867 5869 5871 5872 5874 5876 5878 5880 5882 5883 5884
5839 5838 5838 5838 5838 5838 5838 5838 5838 5838 5837 5837 5837 5836 5836 5836 5836 5836 5836 5836 5836 5837 5838 5839 5840 5842 5844 5846 5849 5853 5855 5858 5861 5864 5866 5868 5870 5872 5874 5876 5878 5880 5881
5833 5833 5833 5832 5832 5833 5833 5833 5833 5833 5833 5833 5832 5832 5832 5831 5831 5831 5831 5831 5831 5831 5832 5833 5834 5835 5836 5838 5842 5845 5848 5851 5854 5857 5860 5862 5864 5866 5868 5871 5873 5875 5877
5827 5827 5827 5827 5827 5827 5827 5827 5827 5827 5828 5828 5828 5828 5828 5827 5827 5826 5825 5825 5825 5825 5826 5826 5827 5829 5830 5832 5834 5837 5841 5844 5847 5850 5853 5856 5858 5860 5863 5865 5867 5869 5871
5822 5822 5822 5821 5821 5821 5821 5821 5822 5822 5823 5824 5824 5824 5824 5823 5822 5821 5821 5820 5819 5819 5820 5820 5821 5822 5824 5825 5827 5830 5833 5836 5839 5842 5845 5848 5851 5854 5856 5858 5861 5863 5865
5816 5816 5816 5816 5816 5816 5816 5817 5817 5817 5818 5819 5820 5821 5820 5820 5819 5817 5816 5815 5815 5814 5814 5814 5815 5816 5817 5819 5821 5823 5825 5828 5830 5833 5836 5839 5843 5846 5849 5852 5854 5857 5859
5810 5811 5811 5811 5811 5811 5812 5812 5812 5813 5814 5815 5816 5817 5816 5816 5815 5814 5812 5811 5810 5809 5808 5808 5808 5809 5810 5812 5814 5815 5817 5820 5821 5824 5827 5830 5834 5838 5841 5845 5848 5850 5853
5804 5804 5805 5805 5805 5806 5806 5807 5807 5808 5808 5810 5811 5812 5812 5811 5810 5809 5808 5806 5805 5803 5802 5801 5802 5802 5803 5805 5807 5808 5810 5812 5813 5815 5818 5821 5824 5829 5833 5837 5840 5843 5846
5797 5798 5798 5798 5799 5799 5800 5801 5801 5802 5802 5804 5805 5806 5807 5807 5806 5804 5803 5802 5799 5797 5795 5794 5795 5795 5796 5797 5799 5801 5803 5804 5806 5808 5810 5812 5816 5820 5825 5829 5833 5836 5838
5791 5791 5791 5791 5791 5792 5793 5794 5794 5795 5796 5797 5798 5800 5801 5801 5801 5801 5798 5795 5794 5792 5790 5788 5787 5787 5788 5790 5792 5794 5796 5797 5799 5801 5803 5805 5809 5813 5817 5821 5824 5828 5830
5784 5784 5784 5783 5783 5784 5784 5785 5786 5787 5789 5790 5791 5792 5793 5794 5794 5795 5794 5791 5788 5786 5784 5782 5781 5780 5781 5782 5784 5786 5788 5790 5792 5794 5796 5798 5802 5805 5809 5813 5816 5820 5823
5774 5775 5775 5775 5775 5775 5776 5776 5777 5778 5780 5781 5783 5784 5785 5786 5787 5787 5787 5786 5783 5780 5778 5776 5774 5773 5774 5775 5777 5779 5781 5782 5785 5787 5790 5792 5795 5798 5802 5805 5809 5812 5816
5762 5763 5764 5765 5766 5766 5766 5767 5768 5769 5770 5772 5774 5776 5777 5778 5779 5779 5780 5779 5778 5775 5772 5769 5768 5767 5767 5768 5770 5772 5774 5776 5778 5781 5783 5786 5789 5792 5795 5798 5802 5805 5808
5747 5748 5749 5751 5753 5754 5756 5757 5757 5759 5760 5762 5764 5766 5768 5769 5770 5771 5772 5772 5772 5769 5766 5762 5761 5761 5760 5761 5763 5765 5767 5770 5772 5775 5777 5780 5783 5786 5789 5792 5795 5798 5800
5730 5731 5733 5735 5737 5740 5742 5744 5746 5747 5749 5752 5754 5756 5758 5760 5762 5763 5763 5764 5764 5763 5760 5756 5755 5754 5754 5755 5757 5758 5761 5764 5767 5769 5772 5775 5778 5781 5784 5786 5789 5791 5793
5710 5712 5714 5716 5719 5723 5726 5729 5733 5735 5738 5740 5743 5746 5749 5751 5753 5754 5755 5756 5756 5756 5754 5750 5749 5748 5748 5749 5750 5752 5755 5758 5761 5764 5767 5770 5773 5775 5778 5780 5782 5783 5785
5686 5689 5693 5696 5699 5703 5708 5712 5717 5721 5724 5728 5732 5735 5739 5741 5744 5745 5747 5747 5748 5748 5747 5745 5743 5742 5742 5743 5744 5746 5750 5752 5756 5759 5762 5764 5767 5769 5771 5773 5775 5777 5779
5660 5664 5669 5673 5678 5682 5687 5693 5699 5704 5709 5714 5719 5723 5727 5731 5734 5736 5738 5739 5740 5741 5741 5739 5737 5736 5736 5736 5738 5740 5743 5747 5750 5753 5756 5758 5761 5763 5765 5767 5769 5770 5772
5633 5638 5643 5648 5654 5659 5665 5672 5679 5686 5693 5699 5704 5710 5715 5720 5724 5727 5729 5731 5733 5734 5734 5733 5732 5730 5730 5730 5732 5734 5737 5741 5744 5747 5750 5752 5755 5757 5759 5761 5763 5764 5766
5611 5614 5618 5623 5628 5635 5642 5650 5658 5667 5675 5682 5689 5696 5702 5707 5712 5717 5720 5722 5725 5727 5728 5727 5726 5725 5724 5725 5726 5729 5732 5735 5738 5740 5743 5746 5749 5751 5753 5755 5757 5758 5760
5596 5597 5599 5602 5605 5611 5618 5626 5635 5646 5656 5665 5673 5681 5688 5694 5701 5706 5710 5713 5717 5719 5721 5721 5721 5720 5719 5720 5721 5723 5726 5729 5732 5735 5737 5739 5742 5744 5747 5749 5750 5752 5754
5583 5584 5585 5587 5588 5591 5596 5602 5611 5623 5635 5646 5656 5665 5674 5681 5688 5694 5699 5704 5708 5711 5714 5715 5715 5715 5715 5715 5716 5718 5720 5723 5726 5728 5730 5733 5735 5738 5740 5742 5744 5747 5748
5570 5571 5573 5574 5576 5578 5579 5583 5589 5600 5613 5626 5638 5649 5659 5667 5675 5682 5689 5694 5699 5703 5706 5708 5709 5709 5709 5710 5711 5713 5715 5717 5719 5722 5724 5726 5729 5732 5734 5736 5739 5741 5743
5555 5557 5560 5562 5564 5566 5568 5570 5573 5580 5592 5606 5620 5633 5644 5653 5662 5670 5678 5684 5690 5695 5699 5701 5703 5704 5704 5705 5706 5708 5710 5712 5714 5716 5719 5720 5723 5725 5728 5731 5733 5736 5739
5540 5543 5546 5549 5553 5555 5558 5560 5562 5566 5575 5588 5602 5617 5629 5639 5649 5658 5666 5673 5680 5686 5691 5695 5697 5698 5699 5700 5701 5703 5705 5707 5709 5711 5713 5716 5718 5721 5723 5726 5729 5732 5735
Wind_Speed
26 25 24 23 23 21 20 20 20 20 19 18 18 19 20 19 19 18 18 19 21 23 26 28 30 29 27 26 25 23 21 19 18 17 16 15 14 14 14 15 15 15 15
24 24 23 22 21 19 19 20 20 19 19 18 17 17 18 18 19 19 19 19 20 20 22 25 28 30 30 29 29 27 25 23 21 20 19 18 17 16 16 16 15 15 14
22 22 21 20 20 19 20 20 20 19 19 18 18 18 18 19 20 21 21 21 21 21 22 24 25 27 29 30 31 31 29 27 25 24 23 21 20 19 19 18 18 17 16
21 20 19 18 18 19 19 20 20 20 19 18 18 17 17 18 19 20 21 22 23 24 24 25 25 25 27 29 31 32 32 31 29 27 27 26 24 23 22 21 21 21 20
21 19 18 18 18 18 18 18 19 19 18 17 16 16 15 15 16 17 19 20 22 24 25 26 26 26 27 28 30 32 34 34 33 32 31 30 29 28 26 25 24 24 24
21 20 19 18 17 16 16 16 17 17 17 16 15 14 13 12 12 13 15 17 19 21 24 26 27 28 28 29 30 31 33 36 37 37 36 35 34 32 30 28 27 26 26
21 21 20 19 17 16 16 16 16 17 17 16 14 13 12 11 11 11 13 14 17 19 22 25 27 28 28 29 31 31 33 34 37 39 40 39 38 37 35 33 30 29 28
21 21 21 19 18 18 17 17 17 17 17 17 16 15 13 12 11 12 12 13 15 18 21 24 27 29 30 30 29 31 32 33 35 38 39 41 41 40 38 35 33 31 29
19 19 20 19 19 19 19 18 19 19 19 19 17 16 15 15 14 14 14 14 15 17 20 23 26 29 31 31 30 30 31 33 33 35 37 39 41 41 39 36 34 32 30
19 20 20 20 20 20 20 20 21 21 21 21 20 19 17 16 16 18 18 16 16 18 20 21 24 28 31 32 31 31 31 32 33 33 35 37 39 40 39 36 34 32 31
21 21 22 22 22 21 21 22 23 23 23 23 23 22 20 19 17 17 20 20 18 18 20 21 24 26 29 31 32 30 31 31 31 31 32 34 37 38 39 36 34 33 31
25 25 24 24 24 24 24 24 24 25 25 26 26 25 24 23 21 19 19 20 21 20 20 21 23 25 27 30 31 30 29 28 29 29 30 30 32 34 35 34 32 31 30
32 30 29 28 28 28 28 27 27 27 27 28 28 27 27 26 24 23 21 21 21 22 22 21 23 25 26 28 29 29 27 25 25 26 25 27 28 29 30 29 28 28 29
41 39 36 34 33 33 33 32 31 30 30 30 30 30 29 28 27 26 24 23 22 23 23 22 22 24 25 27 28 28 27 24 24 23 23 23 24 26 25 25 26 27 28
49 48 46 43 41 40 39 38 36 35 34 33 33 32 31 30 29 28 27 25 23 22 24 24 22 22 25 27 28 28 27 25 24 22 21 21 21 21 23 24 26 27 27
54 55 55 53 51 49 46 44 42 41 38 36 35 34 33 32 31 30 28 26 24 22 23 25 23 21 23 25 27 27 26 24 24 21 21 22 22 23 25 26 27 28 28
58 59 59 59 58 57 54 51 48 47 44 42 39 37 35 33 32 31 29 27 25 23 22 24 23 21 22 24 27 27 27 24 23 22 22 22 23 24 25 26 26 27 27
63 63 63 63 63 62 60 58 54 52 50 47 44 41 38 36 34 32 30 28 26 24 22 22 22 20 20 23 26 26 26 25 25 24 24 23 24 24 24 24 24 25 25
68 69 68 67 66 65 63 61 59 57 55 52 49 46 42 39 36 34 31 29 26 24 22 21 21 20 19 21 24 26 27 26 25 25 25 24 23 23 23 23 23 23 23
63 68 71 72 71 70 67 65 62 60 58 55 53 50 46 43 39 36 33 30 27 24 22 21 20 18 17 19 22 24 25 25 25 25 25 25 24 23 23 23 23 23 22
45 52 60 67 72 74 73 70 66 62 59 57 54 52 49 46 42 38 35 31 29 26 23 20 19 17 15 16 18 21 22 23 23 24 24 24 24 23 23 22 22 22 22
35 37 40 47 56 65 72 74 72 68 62 58 55 53 51 48 45 41 37 34 31 27 24 21 18 16 14 14 16 19 21 22 22 22 22 23 23 23 23 22 21 21 22
34 34 33 34 37 45 55 66 72 72 68 62 57 54 52 49 47 43 39 36 32 29 25 21 18 16 14 13 15 17 18 20 21 22 22 22 22 22 22 22 22 22 21
37 36 35 34 34 34 38 46 59 68 70 67 61 56 53 51 48 45 41 38 34 30 26 22 19 16 14 13 14 16 17 18 19 20 21 22 23 23 22 22 22 21 20
41 39 37 36 33 32 32 34 40 53 63 66 64 59 55 52 50 47 44 40 37 32 27 23 20 17 15 14 14 15 16 16 18 19 19 20 20 21 22 22 21 20 19
41 40 39 37 35 33 30 29 30 38 50 59 62 61 57 53 51 48 46 43 39 34 29 25 22 18 16 15 15 15 15 16 16 16 16 17 18 20 21 22 21 19 18
Wind_Direction
286 284 282 279 272 272 272 272 274 276 274 270 268 265 263 264 267 265 264 261 257 254 248 245 243 242 243 242 243 243 242 239 238 239 241 242 243 244 246 249 252 257 261
285 281 278 274 271 267 265 265 265 266 267 264 263 262 261 262 263 261 262 261 257 254 250 247 246 244 243 241 240 241 241 240 239 239 240 242 243 243 244 247 249 253 256
287 283 278 274 268 264 261 259 259 259 259 258 259 260 261 261 262 263 262 259 255 252 250 249 248 246 244 241 239 239 240 240 241 241 241 241 242 243 245 247 249 251 253
290 287 282 276 270 263 259 256 255 254 254 255 256 258 260 262 264 265 264 261 258 255 251 249 249 248 245 242 239 238 238 240 241 242 243 243 243 244 244 246 249 251 253
292 289 284 278 273 266 259 254 251 249 250 249 250 254 259 263 267 269 268 266 263 260 256 252 250 249 246 243 240 238 239 240 241 244 245 246 245 245 245 246 249 251 254
291 289 285 280 275 268 260 253 248 247 245 243 244 249 256 265 272 276 276 274 271 267 262 257 254 251 248 244 241 240 240 241 243 245 246 247 247 245 245 246 248 250 253
284 284 281 276 271 265 258 251 249 247 243 241 243 249 258 269 278 283 284 282 276 272 267 262 258 256 252 248 244 243 244 244 245 246 247 247 246 245 246 246 247 249 251
276 276 275 270 264 260 255 251 250 250 246 243 246 252 260 271 280 288 293 292 285 276 269 264 260 256 254 251 249 246 245 245 247 247 247 246 245 244 245 246 247 249 251
269 267 268 265 261 257 253 251 251 253 251 246 247 255 264 275 286 292 297 298 296 286 275 267 261 256 254 251 249 247 246 247 247 247 246 245 242 242 242 245 247 250 252
264 260 258 256 255 255 253 253 253 255 255 254 254 257 264 271 281 291 297 300 300 293 285 275 265 259 255 252 250 248 248 248 247 246 245 243 240 239 240 242 245 249 252
259 256 254 251 250 251 252 253 254 256 258 259 261 264 267 271 278 285 292 298 302 298 291 281 271 262 256 253 251 250 249 250 247 245 244 241 240 239 239 241 243 246 249
259 255 253 253 251 251 251 252 253 255 257 260 262 265 269 274 279 283 286 293 299 300 295 284 274 266 258 253 250 249 248 248 246 245 244 240 237 237 237 238 241 242 247
261 256 252 253 254 253 252 252 253 254 255 257 260 264 268 273 279 283 285 289 294 297 297 287 275 267 259 252 248 248 248 248 245 243 243 237 236 238 236 237 239 242 246
262 259 254 252 252 253 253 253 253 253 254 255 258 262 266 271 275 281 283 286 290 293 294 290 278 266 257 251 247 244 243 244 243 241 240 236 235 235 234 235 239 244 247
259 258 257 253 251 250 252 253 253 253 253 254 256 260 263 267 272 277 280 283 286 290 292 290 283 267 256 249 245 241 237 238 237 235 233 232 233 235 236 239 243 246 249
258 256 256 254 252 251 250 250 252 253 254 254 256 258 261 264 267 272 277 279 283 287 291 289 285 271 257 249 243 241 237 234 231 231 232 232 233 237 241 244 247 249 251
257 255 254 254 253 252 251 250 250 252 254 255 256 258 259 262 264 268 271 275 279 284 289 288 285 273 258 248 242 241 238 236 231 230 232 235 237 240 244 248 250 252 254
256 254 253 253 253 252 251 250 248 249 251 253 255 257 258 259 261 263 266 269 274 280 286 286 284 276 259 247 240 237 236 236 234 233 235 238 240 244 248 251 252 253 254
253 252 251 251 251 251 251 249 248 247 248 250 251 253 255 256 258 258 260 263 268 275 282 284 282 277 262 248 240 236 234 234 236 236 238 239 244 248 250 251 253 252 252
252 250 249 248 248 249 249 248 247 246 246 246 247 249 251 252 254 254 254 257 261 269 276 281 280 277 265 251 242 236 233 233 235 237 239 242 247 250 250 252 251 249 248
257 253 250 248 247 246 246 246 246 244 244 243 243 244 246 247 248 249 250 251 254 262 270 275 278 276 267 251 243 237 234 234 239 239 241 244 247 249 250 249 250 247 246
264 260 257 253 250 247 245 244 243 242 241 240 240 240 241 243 244 245 246 246 249 256 263 269 275 274 262 251 244 238 237 238 242 240 242 243 248 250 248 246 245 243 244
263 261 261 259 257 253 248 244 240 239 237 236 236 236 237 238 239 240 242 242 245 250 257 264 270 268 260 251 244 240 239 240 240 242 244 246 248 246 244 242 241 240 242
262 260 260 261 262 260 256 249 241 236 234 232 232 232 233 234 235 236 238 240 242 245 251 258 262 262 256 247 242 239 238 238 240 246 245 245 244 244 245 240 235 234 234
259 258 257 258 260 259 258 254 246 236 231 228 227 227 229 231 232 233 236 237 238 240 245 253 255 255 251 243 242 241 241 240 242 244 245 244 241 239 237 230 226 226 226
257 255 254 253 253 253 254 254 250 238 228 224 223 223 225 228 229 232 233 234 235 237 242 246 249 247 244 240 238 241 241 241 241 245 245 242 238 235 230 224 219 220 224